Date,TemperatureHighF,TemperatureAvgF,TemperatureLowF,DewpointHighF,DewpointAvgF,DewpointLowF,HumidityHigh,HumidityAvg,HumidityLow,PressureMaxIn,PressureMinIn,WindSpeedMaxMPH,WindSpeedAvgMPH,GustSpeedMaxMPH,PrecipitationSumIn
2013-1-30,50.0,38.2,27.0,48.0,36.3,25.0,98,93,86,29.51,29.16,5,3,15,1.07
2013-1-31,27.0,17.7,13.0,25.0,14.6,10.0,91,87,76,30.08,29.51,4,1,11,0.03
2013-2-1,15.0,9.5,5.0,10.0,5.4,2.0,90,83,69,30.40,30.08,4,0,8,0.01
2013-2-2,26.0,19.3,14.0,23.0,16.7,10.0,92,89,82,30.29,30.01,5,1,10,0.00
2013-2-3,23.0,16.8,11.0,19.0,13.3,8.0,91,86,79,30.10,29.98,5,0,11,0.00
2013-2-4,27.0,22.7,19.0,23.0,20.0,16.0,93,89,84,30.10,29.89,4,0,8,0.00
2013-2-5,31.0,24.2,12.0,29.0,21.6,10.0,94,90,81,30.05,29.85,5,1,10,0.01
2013-2-6,35.0,29.5,22.0,25.0,22.7,18.0,87,76,62,30.29,30.05,7,1,13,0.28
2013-2-7,41.0,33.6,28.0,33.0,29.0,25.0,95,83,72,30.20,29.84,7,2,13,0.34
2013-2-8,34.0,31.4,24.0,33.0,27.0,20.0,96,84,75,30.39,29.85,10,5,17,0.20
2013-2-9,36.0,27.2,16.0,29.0,22.7,13.0,94,83,73,30.45,30.20,6,2,14,0.01
2013-2-10,48.0,37.3,30.0,45.0,33.0,24.0,94,84,77,30.20,29.59,10,4,17,0.16
2013-2-11,49.0,36.5,31.0,46.0,30.4,25.0,91,78,72,30.00,29.58,7,3,16,0.02
2013-2-12,33.0,29.4,24.0,26.0,24.0,21.0,89,80,74,30.13,29.98,5,1,11,0.01
2013-2-13,45.0,32.3,23.0,34.0,27.6,21.0,93,83,65,29.99,29.75,4,1,9,0.00
2013-2-14,42.0,35.9,32.0,35.0,30.7,23.0,91,82,65,29.97,29.70,5,2,12,0.00
2013-2-15,34.0,27.5,20.0,29.0,22.3,16.0,93,81,67,30.20,29.96,7,2,13,0.04
2013-2-16,25.0,19.5,11.0,21.0,14.4,8.0,90,80,63,30.18,30.11,8,2,15,0.01
2013-2-17,28.0,20.5,12.0,18.0,13.9,9.0,92,76,51,30.27,30.16,3,0,8,0.03
2013-2-18,52.0,37.9,24.0,44.0,30.4,16.0,90,74,67,30.16,29.47,9,4,21,0.27
2013-2-19,45.0,22.8,16.0,43.0,19.5,12.0,93,87,81,30.12,29.46,7,2,19,0.35
2013-2-20,23.0,19.1,15.0,20.0,15.9,12.0,90,87,83,30.37,30.12,4,2,10,0.01
2013-2-21,27.0,24.2,21.0,22.0,19.4,17.0,89,82,75,30.42,30.11,12,2,20,0.01
2013-2-22,34.0,27.9,22.0,33.0,25.2,17.0,95,90,79,30.11,29.87,9,3,18,0.00
2013-2-23,31.0,27.7,25.0,25.0,22.5,21.0,87,81,68,29.99,29.93,3,1,11,0.01
2013-2-24,38.0,27.9,18.0,27.0,22.2,15.0,90,80,59,30.19,29.97,4,0,8,0.01
2013-2-25,42.0,30.8,19.0,30.0,24.4,17.0,95,78,59,30.24,30.06,5,1,11,0.01
2013-2-26,35.0,33.3,32.0,32.0,28.5,25.0,95,83,68,30.07,29.49,9,4,22,0.27
2013-2-27,36.0,33.4,32.0,34.0,32.1,31.0,96,95,92,29.64,29.48,2,0,5,0.33
2013-2-28,38.0,34.3,32.0,34.0,31.3,28.0,96,89,84,30.01,29.63,8,4,16,0.09
2013-3-1,35.0,31.1,27.0,28.0,25.5,20.0,87,80,69,30.17,30.01,6,2,14,0.01
2013-3-2,32.0,28.3,24.0,24.0,21.6,19.0,84,76,69,30.17,30.12,8,4,17,0.00
2013-3-3,32.0,26.7,19.0,23.0,19.6,15.0,88,75,64,30.15,30.09,6,2,13,0.00
2013-3-4,37.0,27.3,18.0,26.0,20.3,16.0,92,76,53,30.19,30.07,4,1,10,0.00
2013-3-5,33.0,30.6,28.0,28.0,26.5,24.0,95,85,72,30.09,29.80,5,3,16,0.01
2013-3-6,36.0,31.4,27.0,31.0,28.2,25.0,94,88,77,30.29,29.91,7,4,15,0.26
2013-3-7,38.0,32.7,22.0,31.0,27.9,19.0,94,83,64,30.45,30.28,4,1,9,0.08
2013-3-8,41.0,27.6,14.0,28.0,21.2,12.0,92,78,58,30.54,30.42,4,0,8,0.01
2013-3-9,42.0,36.0,29.0,35.0,29.4,23.0,82,77,68,30.42,29.96,9,4,18,0.00
2013-3-10,58.0,48.5,40.0,49.0,41.0,34.0,90,76,65,29.96,29.70,9,3,14,0.09
2013-3-11,53.0,44.2,35.0,47.0,41.6,32.0,96,90,73,29.76,29.54,4,2,13,0.12
2013-3-12,38.0,33.4,30.0,32.0,29.4,27.0,93,85,69,29.98,29.76,4,1,9,0.01
2013-3-13,30.0,27.1,22.0,27.0,21.3,16.0,92,79,61,30.34,29.98,7,3,16,0.06
2013-3-14,43.0,30.8,20.0,30.0,22.9,16.0,88,74,49,30.35,30.16,3,1,8,0.01
2013-3-15,48.0,36.6,29.0,39.0,33.2,27.0,94,88,68,30.16,29.81,3,0,9,0.11
2013-3-16,38.0,34.5,30.0,37.0,31.7,24.0,95,90,78,30.12,29.68,9,3,17,0.10
2013-3-17,37.0,32.0,29.0,26.0,23.4,20.0,82,71,58,30.24,30.09,7,3,16,0.00
2013-3-18,35.0,31.2,28.0,34.0,27.7,21.0,95,87,74,30.09,29.62,7,2,17,0.04
2013-3-19,36.0,27.6,21.0,23.0,19.0,16.0,83,71,48,30.07,29.78,5,2,16,0.02
2013-3-20,28.0,23.2,19.0,19.0,15.0,11.0,89,71,59,30.08,30.03,6,2,16,0.01
2013-3-21,30.0,23.6,18.0,21.0,18.0,13.0,92,79,65,30.07,29.99,6,2,13,0.09
2013-3-22,38.0,27.4,17.0,24.0,19.3,15.0,92,73,46,30.11,30.04,5,1,11,0.02
2013-3-23,39.0,29.6,21.0,28.0,23.5,19.0,94,78,58,30.17,30.05,5,1,11,0.01
2013-3-24,37.0,32.4,28.0,28.0,25.5,23.0,84,75,63,30.06,29.63,9,3,21,0.01
2013-3-25,37.0,33.2,30.0,30.0,27.1,24.0,84,78,73,30.03,29.64,10,5,18,0.00
2013-3-26,39.0,34.3,31.0,33.0,30.1,27.0,93,84,72,30.25,30.03,7,3,17,0.02
2013-3-27,43.0,34.9,26.0,33.0,27.1,21.0,94,75,47,30.33,30.24,8,2,18,0.01
2013-3-28,48.0,34.8,23.0,31.0,23.8,20.0,91,67,37,30.36,30.31,6,1,13,0.00
2013-3-29,51.0,37.0,24.0,31.0,23.8,21.0,92,63,33,30.35,30.26,6,1,12,0.00
2013-3-30,57.0,41.1,24.0,36.0,28.7,21.0,90,64,41,30.28,29.93,4,1,14,0.00
2013-3-31,59.0,48.5,39.0,43.0,36.9,-99.9,94,68,43,29.93,29.68,9,2,20,0.01
2013-4-1,39.0,33.1,24.0,31.0,21.5,17.0,79,63,48,30.17,29.83,9,4,19,0.01
2013-4-2,42.0,31.8,23.0,24.0,17.2,14.0,82,58,33,30.32,30.17,8,2,16,0.00
2013-4-3,45.0,31.3,18.0,23.0,17.9,14.0,87,61,30,30.47,30.32,7,2,14,0.00
2013-4-4,58.0,38.9,22.0,27.0,21.9,17.0,85,55,25,30.38,29.99,4,1,10,0.00
2013-4-5,50.0,40.3,31.0,33.0,27.8,23.0,85,62,39,30.22,29.98,7,3,16,0.00
2013-4-6,67.0,49.6,32.0,45.0,31.7,25.0,83,52,35,30.18,29.71,12,5,22,0.00
2013-4-7,61.0,51.5,44.0,47.0,41.2,36.0,83,68,52,29.98,29.65,9,3,17,0.03
2013-4-8,68.0,51.1,42.0,57.0,43.8,35.0,92,77,60,30.00,29.68,8,3,20,0.12
2013-4-9,76.0,54.9,40.0,63.0,48.2,38.0,95,79,57,30.02,29.80,5,2,13,0.01
2013-4-10,53.0,47.2,42.0,50.0,44.5,40.0,94,91,86,29.95,29.83,7,2,16,0.06
2013-4-11,44.0,42.9,41.0,43.0,41.3,39.0,95,94,91,29.88,29.60,7,4,16,1.40
2013-4-12,45.0,40.3,37.0,40.0,37.3,33.0,96,89,79,29.86,29.59,5,1,11,0.43
2013-4-13,44.0,39.1,34.0,35.0,32.6,30.0,91,78,60,30.01,29.85,3,0,13,0.01
2013-4-14,61.0,47.4,38.0,50.0,38.9,30.0,87,73,63,30.06,29.78,9,4,19,0.01
2013-4-15,65.0,57.3,46.0,58.0,51.2,44.0,95,80,70,29.93,29.78,8,3,17,0.56
2013-4-16,50.0,45.5,42.0,44.0,39.8,35.0,95,81,62,30.24,29.93,7,2,13,1.04
2013-4-17,53.0,47.6,43.0,46.0,41.0,35.0,94,78,65,30.28,29.89,7,3,18,0.62
2013-4-18,70.0,58.5,48.0,64.0,56.2,46.0,95,92,78,29.90,29.49,9,4,21,0.99
2013-4-19,55.0,39.6,35.0,53.0,34.9,31.0,94,83,76,29.87,29.49,5,2,14,0.92
2013-4-20,42.0,36.1,31.0,32.0,26.1,21.0,86,67,47,30.46,29.87,8,3,17,0.01
2013-4-21,51.0,39.3,27.0,34.0,27.2,21.0,85,63,47,30.58,30.41,8,3,17,0.01
2013-4-22,64.0,50.9,35.0,39.0,35.0,30.0,83,57,32,30.42,30.11,6,2,12,0.00
2013-4-23,66.0,51.9,39.0,54.0,44.0,37.0,94,76,58,30.11,29.85,8,2,13,0.56
2013-4-24,47.0,39.5,36.0,37.0,32.9,28.0,95,79,52,30.16,29.87,8,4,16,0.44
2013-4-25,51.0,42.7,35.0,39.0,33.8,30.0,88,72,49,30.36,30.12,7,2,16,0.01
2013-4-26,64.0,48.0,31.0,46.0,37.1,29.0,93,69,46,30.42,30.29,6,2,14,0.00
2013-4-27,68.0,55.3,38.0,48.0,41.3,36.0,95,63,34,30.34,30.03,7,2,19,0.00
2013-4-28,58.0,55.4,51.0,54.0,50.9,47.0,93,85,68,30.04,29.83,3,0,8,0.10
2013-4-29,70.0,58.2,45.0,58.0,51.2,44.0,98,80,56,29.95,29.85,4,1,11,0.01
2013-4-30,82.0,68.3,57.0,62.0,56.7,51.0,83,68,46,29.96,29.86,6,3,16,0.01
2013-5-1,83.0,72.3,59.0,60.0,56.2,52.0,82,59,36,30.14,29.96,5,1,15,0.00
2013-5-2,72.0,61.4,43.0,58.0,51.8,39.0,88,71,56,30.16,30.08,6,2,14,0.00
2013-5-3,73.0,54.4,42.0,61.0,49.4,39.0,93,84,59,30.11,29.95,4,1,10,0.21
2013-5-4,72.0,65.6,60.0,53.0,46.7,41.0,63,51,35,30.01,29.95,6,3,15,0.06
2013-5-5,73.0,63.8,54.0,50.0,45.8,43.0,67,53,36,30.01,29.95,7,2,17,0.00
2013-5-6,78.0,64.2,55.0,52.0,44.4,32.0,70,51,21,30.01,29.91,4,1,12,0.00
2013-5-7,76.0,61.9,47.0,56.0,48.9,43.0,92,64,43,30.03,29.96,4,1,12,0.00
2013-5-8,77.0,65.2,52.0,57.0,50.7,46.0,89,62,39,30.03,29.95,5,1,13,0.00
2013-5-9,81.0,62.5,47.0,61.0,52.1,45.0,95,73,36,29.98,29.85,5,0,11,0.18
2013-5-10,61.0,51.8,43.0,60.0,48.5,-99.9,96,93,85,29.94,29.74,7,2,14,0.20
2013-5-11,55.0,45.7,38.0,51.0,42.0,35.0,96,88,69,30.01,29.84,13,2,24,0.01
2013-5-12,50.0,42.0,36.0,35.0,31.6,-99.9,94,70,48,30.15,30.01,9,4,20,0.01
2013-5-13,60.0,47.5,32.0,36.0,31.4,25.0,93,59,29,30.20,30.09,8,1,16,0.00
2013-5-14,83.0,67.1,51.0,59.0,45.4,28.0,59,46,38,30.09,29.67,8,2,15,0.00
2013-5-15,78.0,73.3,60.0,62.0,55.1,48.0,77,54,36,29.80,29.62,9,3,16,0.06
2013-5-16,83.0,61.9,50.0,55.0,31.0,-99.9,94,61,28,29.96,29.79,5,1,10,0.06
2013-5-17,80.0,66.8,57.0,62.0,46.4,-99.9,81,56,32,30.04,29.95,5,1,10,0.00
2013-5-18,80.0,69.2,60.0,61.0,52.3,40.0,82,56,48,30.08,29.95,4,1,11,0.00
2013-5-19,88.0,74.7,60.0,64.0,59.3,52.0,80,60,42,29.97,29.77,6,2,17,0.00
2013-5-20,89.0,79.3,70.0,69.0,65.5,61.0,87,64,39,29.83,29.72,7,3,14,0.00
2013-5-21,80.0,72.0,63.0,67.0,64.3,60.0,95,78,61,29.77,29.67,9,3,16,0.79
2013-5-22,74.0,68.3,64.0,66.0,63.3,58.0,93,84,73,29.72,29.63,7,2,15,0.28
2013-5-23,65.0,49.8,42.0,60.0,47.3,39.0,95,91,83,30.22,29.72,9,4,20,0.01
2013-5-24,55.0,46.7,38.0,45.0,39.2,34.0,94,76,52,30.42,30.22,7,2,15,0.01
2013-5-25,63.0,51.0,38.0,51.0,43.1,36.0,95,76,51,30.41,30.29,5,1,9,0.00
2013-5-26,71.0,58.5,42.0,53.0,43.1,40.0,93,61,34,30.32,30.17,6,2,12,0.00
2013-5-27,61.0,56.5,52.0,55.0,51.4,42.0,94,84,50,30.18,29.90,9,4,18,0.28
2013-5-28,78.0,68.3,57.0,70.0,64.0,55.0,97,87,72,29.91,29.77,8,3,17,0.70
2013-5-29,83.0,71.9,62.0,71.0,65.1,60.0,94,80,61,29.96,29.80,7,2,12,0.47
2013-5-30,84.0,75.6,67.0,71.0,66.4,62.0,87,74,59,29.97,29.85,7,3,14,0.14
2013-5-31,76.0,71.2,66.0,68.0,65.3,62.0,91,82,74,29.92,29.69,11,3,21,0.20
2013-6-1,74.0,69.1,63.0,66.0,63.6,60.0,94,83,72,29.82,29.68,7,3,14,0.20
2013-6-2,63.0,55.9,46.0,61.0,51.3,41.0,93,85,73,30.03,29.68,8,3,16,0.08
2013-6-3,66.0,53.7,41.0,52.0,45.2,40.0,96,75,50,30.12,30.03,5,1,13,0.00
2013-6-4,74.0,59.8,45.0,54.0,47.6,43.0,94,68,40,30.18,30.09,5,1,10,0.00
2013-6-5,76.0,66.7,58.0,55.0,49.7,45.0,82,56,43,30.11,29.91,5,2,10,0.00
2013-6-6,72.0,63.9,56.0,57.0,51.4,44.0,88,64,49,29.93,29.83,5,1,10,0.00
2013-6-7,73.0,61.5,53.0,57.0,52.0,45.0,91,73,52,29.91,29.85,7,1,13,0.00
2013-6-8,74.0,62.0,48.0,56.0,51.0,45.0,94,69,47,30.01,29.90,4,1,11,0.00
2013-6-9,82.0,71.3,61.0,64.0,57.8,51.0,85,65,43,30.01,29.83,6,2,14,0.00
2013-6-10,74.0,67.7,62.0,68.0,64.0,60.0,96,88,66,29.84,29.72,7,2,12,0.43
2013-6-11,84.0,70.4,60.0,69.0,63.1,59.0,97,80,52,29.92,29.81,4,0,9,0.01
2013-6-12,88.0,74.8,66.0,75.0,68.9,63.0,96,83,61,29.88,29.57,6,1,12,0.21
2013-6-13,70.0,64.7,57.0,64.0,59.1,53.0,96,83,66,29.98,29.49,9,4,22,0.47
2013-6-14,77.0,63.3,52.0,63.0,56.3,50.0,95,79,55,30.10,29.98,7,1,13,0.02
2013-6-15,75.0,65.7,56.0,65.0,60.4,54.0,96,84,67,30.08,29.89,4,1,10,0.04
2013-6-16,83.0,73.7,67.0,68.0,64.3,59.0,89,74,47,29.90,29.85,5,1,12,0.02
2013-6-17,87.0,74.7,64.0,69.0,61.1,52.0,97,68,31,29.91,29.83,9,1,15,0.07
2013-6-18,78.0,67.7,61.0,64.0,59.7,51.0,94,77,56,30.03,29.85,3,0,11,0.08
2013-6-19,78.0,65.6,54.0,53.0,48.8,46.0,78,57,34,30.15,30.02,5,1,10,0.03
2013-6-20,85.0,66.9,53.0,61.0,54.2,49.0,92,67,40,30.17,30.10,3,1,8,0.00
2013-6-22,83.0,79.8,73.0,74.0,72.5,66.0,83,79,73,30.06,29.96,4,1,8,0.09
2013-6-23,87.0,76.2,65.0,71.0,66.7,63.0,95,74,50,30.05,29.94,6,2,11,0.00
2013-6-24,85.0,74.4,66.0,72.0,67.1,63.0,94,79,56,30.05,29.89,4,1,14,0.51
2013-6-25,87.0,73.0,66.0,76.0,69.0,64.0,96,88,66,29.95,29.78,6,1,15,0.86
2013-6-26,82.0,72.1,65.0,73.0,68.1,63.0,96,88,69,29.88,29.70,6,1,14,0.32
2013-6-27,85.0,72.0,65.0,73.0,68.1,64.0,97,88,65,29.76,29.65,6,1,12,0.07
2013-6-28,79.0,71.2,63.0,66.0,64.0,62.0,97,79,59,29.66,29.56,7,2,15,0.07
2013-6-29,76.0,66.5,61.0,67.0,63.0,60.0,97,89,66,29.71,29.54,8,1,13,0.05
2013-6-30,77.0,67.1,61.0,68.0,62.2,59.0,95,84,67,29.93,29.71,5,1,12,0.07
2013-7-1,76.0,66.0,57.0,62.0,53.4,44.0,90,65,46,30.03,29.93,5,1,16,0.01
2013-7-2,67.0,61.8,59.0,62.0,57.8,52.0,97,87,61,30.04,30.00,3,0,8,0.43
2013-7-3,78.0,67.8,61.0,67.0,63.6,60.0,98,88,69,30.07,29.99,4,0,9,0.01
2013-7-4,78.0,70.2,59.0,66.0,63.2,58.0,98,80,61,30.12,30.05,2,0,8,0.01
2013-7-5,83.0,71.2,60.0,69.0,64.7,59.0,97,81,56,30.10,30.01,2,0,7,0.01
2013-7-6,80.0,72.7,67.0,71.0,67.7,65.0,95,85,69,30.07,29.97,5,0,10,0.00
2013-7-7,83.0,74.8,67.0,73.0,69.4,65.0,96,84,67,30.02,29.95,3,1,10,0.00
2013-7-8,81.0,74.0,70.0,75.0,69.0,-99.9,93,87,78,30.03,29.92,4,1,9,0.21
2013-7-9,87.0,75.6,69.0,78.0,72.7,68.0,98,91,73,29.98,29.85,4,0,11,1.10
2013-7-10,81.0,73.8,63.0,77.0,66.3,-99.9,96,81,61,29.96,29.81,7,1,15,0.03
2013-7-11,78.0,66.9,57.0,65.0,59.0,56.0,96,78,53,30.07,29.96,6,1,11,0.00
2013-7-12,82.0,67.0,54.0,66.0,58.9,53.0,98,78,49,30.14,30.05,4,0,9,0.00
2013-7-13,84.0,72.0,58.0,67.0,62.2,56.0,96,73,52,30.15,30.09,4,1,9,0.00
2013-7-14,89.0,78.8,67.0,72.0,68.1,64.0,91,72,51,30.19,30.14,4,1,9,0.00
2013-7-15,88.0,79.8,71.0,79.0,73.5,69.0,94,82,65,30.24,30.19,3,0,7,0.00
2013-7-16,91.0,81.3,71.0,76.0,72.8,69.0,97,78,54,30.30,30.22,2,0,7,0.00
2013-7-17,92.0,80.1,70.0,77.0,73.2,68.0,96,81,61,30.29,30.15,3,0,9,0.00
2013-7-18,92.0,81.3,72.0,79.0,73.7,70.0,96,79,56,30.16,29.95,3,0,8,0.00
2013-7-19,94.0,83.0,73.0,77.0,73.1,71.0,95,74,50,29.96,29.74,6,2,14,0.00
2013-7-20,86.0,78.0,68.0,74.0,66.7,-99.9,92,71,52,29.90,29.74,6,1,10,0.00
2013-7-21,88.0,76.0,65.0,70.0,65.4,62.0,92,72,47,29.95,29.84,3,1,8,0.01
2013-7-22,84.0,72.8,66.0,71.0,67.0,64.0,94,83,58,29.88,29.73,5,1,11,0.60
2013-7-23,77.0,69.8,59.0,68.0,63.8,54.0,95,82,65,29.91,29.68,8,2,16,0.17
2013-7-24,74.0,62.4,50.0,57.0,52.4,47.0,91,71,49,30.04,29.91,7,2,13,0.01
2013-7-25,77.0,64.1,51.0,61.0,55.3,50.0,97,75,52,30.11,30.03,2,0,6,0.00
2013-7-26,74.0,65.3,57.0,63.0,59.0,54.0,93,81,61,30.07,29.89,5,1,10,0.01
2013-7-27,69.0,63.0,57.0,64.0,58.1,50.0,96,84,70,29.89,29.83,8,2,17,0.07
2013-7-28,67.0,58.5,51.0,54.0,50.8,48.0,91,76,59,30.01,29.85,5,1,13,0.01
2013-7-29,71.0,60.9,52.0,59.0,54.6,49.0,92,81,64,30.18,30.00,7,1,15,0.00
2013-7-30,78.0,65.0,51.0,63.0,57.4,50.0,97,78,53,30.21,30.09,2,0,7,0.00
2013-7-31,69.0,66.4,62.0,67.0,64.1,61.0,96,92,85,30.09,29.93,3,0,9,0.10
2013-8-1,77.0,67.3,59.0,66.0,59.2,54.0,98,78,45,29.96,29.92,6,1,13,0.03
2013-8-2,80.0,64.9,55.0,71.0,61.9,53.0,96,90,72,29.96,29.83,5,1,11,0.39
2013-8-3,77.0,69.2,57.0,66.0,60.5,53.0,97,76,47,30.07,29.89,7,2,13,0.03
2013-8-4,75.0,63.9,53.0,59.0,55.3,51.0,97,76,45,30.19,30.07,6,1,11,0.00
2013-8-5,74.0,63.1,51.0,63.0,56.6,50.0,96,80,62,30.13,29.92,3,0,8,0.00
2013-8-6,79.0,69.5,62.0,71.0,65.4,60.0,96,87,73,29.92,29.85,2,1,8,0.86
2013-8-7,80.0,70.2,67.0,73.0,67.9,65.0,97,93,78,29.91,29.80,7,1,20,1.80
2013-8-8,79.0,69.1,62.0,68.0,62.9,59.0,96,82,61,29.99,29.90,4,0,8,0.07
2013-8-9,78.0,69.4,59.0,67.0,61.7,58.0,95,78,54,30.00,29.95,5,0,9,0.00
2013-8-10,80.0,71.3,62.0,67.0,63.0,57.0,96,77,53,30.10,29.99,6,1,11,0.00
2013-8-11,78.0,68.1,56.0,65.0,59.9,54.0,96,77,54,30.12,30.03,3,0,10,0.00
2013-8-12,82.0,70.1,63.0,71.0,65.0,61.0,95,85,62,30.04,29.84,4,0,11,0.17
2013-8-13,68.0,61.8,55.0,65.0,53.7,-99.9,96,79,57,30.11,29.88,7,2,18,0.18
2013-8-14,69.0,58.0,47.0,54.0,48.2,-99.9,93,76,53,30.21,30.11,6,1,12,0.01
2013-8-15,75.0,54.5,46.0,59.0,40.2,-99.9,97,77,53,30.19,30.10,3,0,6,0.00
2013-8-16,79.0,62.9,49.0,60.0,50.7,-99.9,97,72,40,30.18,30.13,3,0,8,0.00
2013-8-17,80.0,66.1,51.0,63.0,56.0,49.0,97,73,43,30.24,30.16,4,1,9,0.00
2013-8-18,81.0,66.3,54.0,64.0,57.2,-99.9,95,76,49,30.20,30.10,3,0,9,0.00
2013-8-19,82.0,64.6,55.0,68.0,50.4,-99.9,97,79,49,30.12,30.03,4,0,10,0.00
2013-8-20,85.0,71.3,60.0,70.0,63.1,-99.9,97,80,54,30.13,30.05,3,0,9,0.00
2013-8-21,86.0,74.6,64.0,72.0,66.6,62.0,95,78,53,30.10,29.96,4,1,9,0.00
2013-8-22,77.0,70.3,66.0,71.0,67.0,64.0,96,89,79,30.10,29.96,7,1,16,0.25
2013-8-23,82.0,71.2,61.0,66.0,60.9,55.0,97,73,39,30.16,30.06,3,0,9,0.01
2013-8-24,82.0,67.9,53.0,62.0,56.8,52.0,97,71,42,30.27,30.16,4,1,11,0.00
2013-8-25,86.0,70.1,56.0,68.0,60.0,-99.9,95,74,51,30.27,30.14,4,1,9,0.00
2013-8-26,88.0,74.3,61.0,74.0,67.1,58.0,91,79,60,30.18,30.00,3,0,9,0.00
2013-8-27,90.0,75.7,69.0,78.0,70.3,66.0,95,84,64,30.01,29.89,2,0,12,0.00
2013-8-28,81.0,76.9,69.0,75.0,72.2,67.0,95,86,79,30.00,29.89,8,4,13,0.00
2013-8-29,86.0,73.5,62.0,71.0,67.1,61.0,98,82,53,30.06,29.97,3,0,7,0.01
2013-8-30,91.0,76.0,64.0,75.0,69.2,63.0,97,81,56,29.97,29.71,6,1,13,0.01
2013-8-31,78.0,72.0,67.0,72.0,68.7,65.0,95,90,76,29.83,29.75,5,1,10,0.07
2013-9-1,82.0,72.1,66.0,74.0,67.0,-99.9,98,87,72,29.79,29.71,4,1,10,0.01
2013-9-2,76.0,68.6,61.0,68.0,63.2,55.0,96,84,63,29.96,29.71,8,2,14,0.20
2013-9-3,73.0,62.9,55.0,59.0,56.1,52.0,94,79,59,30.07,29.95,5,1,11,0.01
2013-9-4,79.0,64.5,51.0,62.0,56.1,50.0,97,77,42,30.12,30.04,5,1,11,0.00
2013-9-5,79.0,64.7,56.0,59.0,55.0,47.0,96,74,32,30.24,30.10,4,1,9,0.00
2013-9-6,82.0,65.2,49.0,66.0,55.3,46.0,92,73,49,30.25,30.04,4,0,8,0.00
2013-9-7,87.0,70.9,59.0,69.0,63.0,55.0,93,78,48,30.04,29.88,4,0,9,0.04
2013-9-8,76.0,69.5,63.0,67.0,63.4,-99.9,97,83,72,30.01,29.92,4,1,12,0.04
2013-9-9,90.0,75.5,65.0,75.0,66.8,58.0,84,75,59,29.99,29.83,4,2,11,0.00
2013-9-10,95.0,81.5,70.0,72.0,68.2,64.0,93,68,36,30.00,29.87,5,1,11,0.00
2013-9-11,94.0,77.0,70.0,72.0,69.3,66.0,95,79,42,30.03,29.92,5,1,12,0.10
2013-9-12,80.0,70.0,60.0,68.0,60.7,53.0,97,75,43,30.02,29.87,5,1,20,0.10
2013-9-13,64.0,57.1,47.0,53.0,45.7,44.0,89,67,49,30.14,30.02,7,2,17,0.01
2013-9-14,70.0,54.0,39.0,47.0,42.2,38.0,96,69,35,30.22,30.07,3,0,8,0.01
2013-9-15,63.0,52.9,46.0,57.0,47.1,-99.9,93,84,72,30.14,30.02,2,0,7,0.02
2013-9-16,70.0,58.8,52.0,55.0,51.5,46.0,95,79,46,30.34,30.14,4,1,10,0.01
2013-9-17,71.0,57.4,46.0,52.0,48.1,43.0,92,73,47,30.37,30.16,4,1,9,0.01
2013-9-18,67.0,57.4,56.0,52.0,49.0,47.0,84,74,64,30.16,29.97,2,0,6,0.10
2013-9-19,74.0,67.5,64.0,69.0,65.8,63.0,97,94,85,30.02,29.84,4,1,12,3.62
2013-9-20,74.0,70.3,63.0,71.0,66.7,56.0,95,88,80,29.85,29.74,6,1,12,0.05
2013-9-21,65.0,59.4,50.0,57.0,52.2,48.0,95,78,59,29.91,29.74,9,2,17,0.01
2013-9-22,65.0,54.4,47.0,51.0,46.1,-99.9,96,77,54,30.07,29.90,6,1,12,0.01
2013-9-23,69.0,54.5,41.0,50.0,45.7,40.0,96,74,49,30.15,30.06,3,1,9,0.00
2013-9-24,70.0,57.0,46.0,52.0,47.5,43.0,92,73,47,30.11,29.95,4,1,11,0.00
2013-9-25,74.0,59.8,47.0,55.0,50.5,45.0,94,74,44,29.98,29.92,2,0,7,0.00
2013-9-26,79.0,59.9,44.0,56.0,49.2,42.0,97,73,36,30.09,29.96,3,0,8,0.00
2013-9-27,79.0,63.3,47.0,55.0,49.9,43.0,89,65,35,30.19,30.09,5,1,10,0.00
2013-9-28,81.0,67.2,53.0,59.0,54.7,50.0,91,67,43,30.13,29.94,6,2,14,0.00
2013-9-29,70.0,61.3,49.0,61.0,53.3,-99.9,95,78,63,30.01,29.92,6,2,13,0.24
2013-9-30,73.0,57.1,41.0,55.0,49.2,40.0,97,78,42,30.02,29.91,4,0,9,0.01
2013-10-1,68.0,63.4,56.0,62.0,59.7,52.0,91,88,82,29.96,29.93,0,0,2,0.01
2013-10-2,82.0,68.3,60.0,63.0,58.7,53.0,98,75,42,30.08,29.96,2,0,8,0.01
2013-10-3,75.0,66.9,61.0,69.0,64.4,57.0,97,91,77,30.01,29.87,4,1,9,0.26
2013-10-4,79.0,70.8,63.0,72.0,66.6,61.0,94,87,75,29.99,29.91,3,0,9,0.03
2013-10-5,79.0,69.4,65.0,72.0,67.0,64.0,97,92,78,29.96,29.79,6,1,11,0.34
2013-10-6,67.0,59.1,47.0,66.0,54.9,42.0,96,86,64,29.80,29.68,4,1,11,0.67
2013-10-7,61.0,50.1,43.0,50.0,44.7,40.0,92,82,56,30.11,29.76,6,1,15,0.10
2013-10-8,74.0,57.1,45.0,55.0,48.0,42.0,94,74,42,30.23,30.11,3,0,8,0.00
2013-10-9,71.0,57.1,44.0,51.0,46.8,42.0,93,71,42,30.27,30.16,3,0,9,0.00
2013-10-10,74.0,58.5,44.0,55.0,48.9,42.0,95,73,44,30.20,30.08,2,0,7,0.00
2013-10-11,74.0,59.9,46.0,53.0,48.4,44.0,95,69,38,30.12,30.00,3,0,9,0.00
2013-10-12,77.0,64.0,53.0,63.0,55.2,49.0,92,74,52,30.11,29.98,6,1,14,0.02
2013-10-13,62.0,52.2,41.0,57.0,43.6,-99.9,96,76,52,30.40,30.11,8,2,15,0.02
2013-10-14,64.0,51.7,40.0,48.0,43.7,38.0,95,76,52,30.42,30.21,4,1,11,0.00
2013-10-15,64.0,56.4,48.0,61.0,52.5,44.0,95,87,77,30.21,29.81,5,2,11,0.12
2013-10-16,62.0,51.1,44.0,60.0,46.8,42.0,93,85,78,29.94,29.84,4,1,9,0.12
2013-10-17,51.0,49.1,42.0,48.0,45.5,39.0,92,87,82,29.94,29.81,4,1,10,0.10
2013-10-18,58.0,45.4,37.0,47.0,40.9,35.0,95,85,64,29.98,29.88,7,1,14,0.01
2013-10-19,54.0,46.3,42.0,43.0,38.8,33.0,94,77,48,29.96,29.80,4,1,13,0.18
2013-10-20,61.0,49.7,38.0,47.0,39.9,-99.9,91,72,56,29.92,29.79,6,2,13,0.01
2013-10-21,56.0,48.8,41.0,47.0,41.1,29.0,91,75,62,29.95,29.83,6,2,12,0.04
2013-10-22,47.0,38.4,30.0,35.0,30.6,26.0,91,75,49,29.99,29.92,4,1,11,0.01
2013-10-23,43.0,37.5,34.0,39.0,34.1,30.0,95,88,63,30.03,29.87,7,1,15,0.41
2013-10-24,42.0,36.7,33.0,36.0,32.8,31.0,95,86,68,30.28,30.00,6,1,14,0.40
2013-10-25,48.0,42.3,30.0,37.0,31.7,28.0,94,67,48,30.40,30.15,4,1,10,0.07
2013-10-26,52.0,44.8,40.0,41.0,34.1,29.0,80,66,58,30.15,29.85,7,4,18,0.02
2013-10-27,54.0,42.2,31.0,37.0,31.6,-99.9,93,70,43,30.09,30.00,3,1,11,0.00
2013-10-28,58.0,42.4,30.0,42.0,33.9,-99.9,92,76,50,30.37,30.06,2,0,8,0.00
2013-10-29,55.0,43.9,35.0,42.0,37.6,32.0,92,79,60,30.40,30.21,4,1,11,0.00
2013-10-30,60.0,51.5,40.0,57.0,47.6,38.0,96,86,80,30.22,29.85,3,1,8,0.96
2013-10-31,63.0,59.9,52.0,62.0,58.5,49.0,97,95,91,29.86,29.20,7,4,14,2.10
2013-11-1,52.0,47.0,45.0,50.0,43.0,40.0,95,86,74,29.72,29.27,3,1,16,0.25
2013-11-2,47.0,44.0,39.0,45.0,41.2,36.0,95,90,77,30.12,29.72,6,1,13,0.18
2013-11-3,49.0,43.1,39.0,41.0,37.2,-99.9,94,82,69,30.35,30.12,6,2,12,0.01
2013-11-4,53.0,46.0,39.0,43.0,38.9,35.0,87,76,65,30.37,30.20,9,4,17,0.00
2013-11-5,55.0,52.2,49.0,50.0,46.2,43.0,89,80,74,30.32,30.07,4,1,11,0.00
2013-11-6,57.0,51.1,42.0,53.0,47.2,36.0,95,87,68,30.09,29.82,10,4,18,0.65
2013-11-7,46.0,39.8,34.0,37.0,32.5,29.0,91,75,58,30.24,30.08,6,2,13,0.02
2013-11-8,47.0,39.9,30.0,35.0,32.5,28.0,94,76,56,30.34,30.11,4,1,8,0.04
2013-11-9,60.0,49.0,43.0,44.0,37.0,-99.9,75,65,54,30.11,29.89,6,3,14,0.01
2013-11-10,47.0,40.4,31.0,36.0,31.8,29.0,92,72,58,30.33,30.04,8,3,17,0.00
2013-11-11,46.0,37.4,28.0,40.0,32.8,25.0,94,84,70,30.42,30.11,7,2,13,0.19
2013-11-12,32.0,26.0,19.0,29.0,23.3,16.0,93,90,79,30.66,30.41,4,0,9,0.16
2013-11-13,35.0,24.8,15.0,26.0,19.7,13.0,91,81,68,30.63,30.26,6,2,10,0.01
2013-11-14,48.0,36.9,28.0,34.0,27.1,22.0,78,68,55,30.26,30.01,5,3,14,0.01
2013-11-15,48.0,41.9,36.0,38.0,32.7,29.0,77,70,62,30.06,29.99,3,1,9,0.01
2013-11-16,58.0,48.2,40.0,55.0,43.6,-99.9,92,86,76,30.02,29.68,8,4,17,0.08
2013-11-17,64.0,57.4,45.0,61.0,53.9,39.0,94,88,77,29.68,29.23,8,4,20,0.93
2013-11-18,45.0,39.2,36.0,39.0,32.9,28.0,87,79,71,30.23,29.67,6,3,15,0.01
2013-11-19,45.0,37.6,33.0,32.0,29.3,28.0,81,72,55,30.38,30.22,4,1,9,0.00
2013-11-20,43.0,36.8,31.0,37.0,30.0,26.0,86,76,65,30.37,30.16,7,3,16,0.06
2013-11-21,49.0,44.9,40.0,45.0,41.7,37.0,96,88,81,30.23,30.16,4,1,8,0.40
2013-11-22,46.0,38.7,28.0,45.0,36.1,26.0,97,91,81,30.45,30.17,9,4,18,0.03
2013-11-23,30.0,25.0,22.0,27.0,19.4,-99.9,93,82,67,30.64,30.38,10,4,26,0.01
2013-11-24,27.0,22.4,19.0,20.0,14.0,8.0,87,70,47,30.70,30.47,7,2,13,0.01
2013-11-25,31.0,25.5,18.0,27.0,19.1,11.0,92,76,64,30.47,30.15,7,3,13,0.00
2013-11-26,33.0,29.8,27.0,29.0,25.7,21.0,90,85,67,30.15,30.01,8,2,17,0.00
2013-11-27,29.0,25.2,21.0,25.0,21.7,19.0,93,87,73,30.27,30.05,7,1,15,0.00
2013-11-28,32.0,24.8,21.0,23.0,18.9,16.0,90,78,65,30.48,30.24,3,1,10,0.00
2013-11-29,35.0,29.1,25.0,25.0,22.3,19.0,85,76,62,30.67,30.47,5,1,9,0.04
2013-11-30,45.0,34.8,27.0,34.0,26.8,-99.9,84,75,66,30.50,30.11,5,1,9,0.01
2013-12-1,42.0,34.0,28.0,35.0,29.6,25.0,92,84,73,30.12,30.02,4,0,9,0.01
2013-12-2,40.0,34.0,27.0,32.0,29.4,25.0,95,84,70,30.03,29.84,4,1,13,0.02
2013-12-3,48.0,41.2,34.0,47.0,39.1,32.0,95,93,89,29.84,29.74,6,3,13,0.14
2013-12-4,58.0,50.4,45.0,56.0,48.7,43.0,97,94,89,29.80,29.57,7,3,14,0.04
2013-12-5,56.0,35.1,28.0,53.0,29.9,21.0,90,81,74,30.23,29.61,5,1,11,0.04
2013-12-6,28.0,26.0,24.0,22.0,19.9,16.0,81,78,72,30.48,30.22,6,3,12,0.00
2013-12-7,23.0,20.4,15.0,17.0,13.3,-99.9,88,76,70,30.68,30.47,6,2,11,0.00
2013-12-8,26.0,21.1,14.0,24.0,16.8,11.0,93,83,71,30.62,29.99,8,2,16,0.00
2013-12-9,27.0,22.6,15.0,25.0,18.4,8.0,94,84,75,30.23,29.96,5,1,11,0.01
2013-12-10,25.0,14.1,1.0,16.0,7.8,-3.0,83,76,65,30.33,30.08,7,1,13,0.01
2013-12-11,23.0,18.0,12.0,21.0,13.4,6.0,90,82,71,30.54,30.32,7,2,14,0.00
2013-12-12,21.0,9.2,-3.0,11.0,3.6,-7.0,86,78,63,30.56,30.31,6,1,12,0.00
2013-12-13,34.0,21.3,11.0,24.0,15.3,8.0,90,78,62,30.31,30.18,4,0,9,0.03
2013-12-14,27.0,24.1,21.0,25.0,21.0,-99.9,93,90,89,30.20,29.89,6,2,13,0.02
2013-12-15,26.0,18.8,9.0,24.0,15.5,4.0,93,87,83,30.14,29.93,1,0,8,0.00
2013-12-16,21.0,14.9,7.0,17.0,11.7,4.0,92,87,78,30.22,30.06,5,1,9,0.01
2013-12-17,29.0,22.6,17.0,26.0,20.1,15.0,92,90,85,30.09,29.98,2,0,8,0.01
2013-12-18,31.0,22.3,12.0,24.0,16.7,9.0,93,79,66,30.23,29.93,4,1,11,0.00
2013-12-19,41.0,37.0,31.0,37.0,33.2,25.0,95,86,77,29.99,29.85,4,1,11,0.12
2013-12-20,40.0,37.7,34.0,39.0,36.7,33.0,97,97,96,29.84,29.71,1,0,5,0.33
2013-12-21,36.0,33.8,33.0,35.0,31.7,-99.9,97,96,95,29.85,29.62,5,1,11,0.48
2013-12-22,35.0,33.0,30.0,34.0,31.5,28.0,97,95,91,30.07,29.50,7,1,15,0.51
2013-12-23,30.0,23.2,8.0,28.0,19.4,4.0,92,85,75,30.45,30.07,4,1,9,0.01
2013-12-24,19.0,10.6,4.0,14.0,6.3,0.0,86,83,76,30.60,30.45,4,1,10,0.01
2013-12-25,27.0,22.8,17.0,26.0,19.0,13.0,94,85,76,30.50,30.14,5,3,13,0.00
2013-12-26,32.0,25.7,20.0,28.0,21.9,16.0,94,85,74,30.33,30.12,4,1,11,0.00
2013-12-27,39.0,33.7,26.0,33.0,29.8,24.0,93,85,77,30.34,30.14,5,2,12,0.04
2013-12-28,47.0,37.8,31.0,39.0,31.8,-99.9,92,82,72,30.14,29.90,5,2,12,0.01
2013-12-29,39.0,32.0,22.0,34.0,28.5,18.0,92,87,80,30.12,29.78,9,4,19,0.00
2013-12-30,22.0,17.3,14.0,19.0,12.9,10.0,88,83,76,30.33,30.12,4,1,10,0.01
2013-12-31,15.0,14.0,11.0,13.0,10.4,7.0,90,85,74,30.39,30.19,3,0,9,0.01
2014-1-1,18.0,16.3,13.0,15.0,13.5,10.0,91,88,84,30.36,30.22,5,2,14,0.00
2014-1-2,16.0,12.7,-3.0,11.0,8.1,-8.0,88,82,71,30.42,30.12,5,3,13,0.00